Hourly Weather Roundup
Issued by NWS Central Illinois

Home | Current Version | Previous Version | Text Only | Print | Product List | Glossary On
Versions: 1 2 3 4 5 6 7 8 9 10 11 12 13 14 15 16 17 18 19 20 21 22 23 24 25 26 27 28 29 30 31 32 33 34 35 36 37 38 39 40 41 42 43 44 45 46 47 48 49 50
081
NZUS43 KILX 191710
HWRILX

Area Weather Roundup
National Weather Service Lincoln IL
1100 AM CST MON FEB 19 2018

NOTE:  "FAIR" indicates few or no clouds below 12,000 feet, with
       no sigificant weather and/or obstructions to visibility.


CITY           SKY/WX    TMP DP  RH WIND       PRES   REMARKS
Bloomington    LGT RAIN  56  55  97 SW25G32   29.83R FOG
Champaign      RAIN      58  57  97 S30G40    29.87R FOG
Danville       HVY RAIN  58  57  98 SW26G32   29.87S
Decatur        PTSUNNY   59  32  36 SW24G39   29.88R
Effingham      RAIN      60  60 100 S14G20    29.98R
Flora          CLOUDY    63  59  86 SW17G24   30.01R
Galesburg      CLOUDY    55  55 100 S16G22    29.75F
Jacksonville   CLOUDY    59  55  87 S16G25    29.84R
Lacon          CLOUDY    53  53 100 SW14G21   29.77S
Lawrenceville  LGT RAIN  62  59  90 S20       30.02R
Litchfield     CLOUDY    58  56  93 S24G32    29.90R
$$


CITY           SKY/WX    TMP DP  RH WIND       PRES   REMARKS
Lincoln        CLOUDY    59  59  98 SW10G23   29.85R
Macomb         CLOUDY    58  57  99 S14       29.78S
Mattoon        RAIN      58  57  97 S14G28    29.92S FOG
Mt Carmel AP   DRIZZLE   63  59  88 SW20G25   30.02R
Olney-Noble AP LGT RAIN  61  59  92 S14G23    30.00F
Paris AP       RAIN      59  58  96 S23G31    29.95F
Peoria         CLOUDY    57  56  96 S18G28    29.80R
Pontiac        CLOUDY    56  55  98 S21G30    29.82S
Rantoul        RAIN      59  58  96 SW21G29   29.87R
Robinson       LGT RAIN  61  59  93 SW16G25   30.00F
Springfield    CLOUDY    61  58  90 S22G31    29.85R
Taylorville    CLOUDY    59  57  92 S22G32    29.88R
$$

...REGIONAL REPORTS...


CITY           SKY/WX    TMP DP  RH WIND       PRES   REMARKS
Chicago O`Hare LGT RAIN  44  42  93 SE8       29.81F VSB 1
Kankakee       RAIN      51  51  97 S12G18    29.84S
Moline         LGT RAIN  51  50  96 S8        29.70F
Mount Sterling CLOUDY    60  56  88 S15G23    29.79S
Mount Vernon   PTSUNNY   62  59  90 SW17G24   30.00R
Pittsfield     CLOUDY    62  56  82 S20G25    29.83R
Quincy         CLOUDY    61  56  83 S18G25    29.77S
Rockford       LGT RAIN  40  39  97 E6        29.80F FOG
$$


CITY           SKY/WX    TMP DP  RH WIND       PRES   REMARKS
Burlington     CLOUDY    56  54  93 S15       29.71F
Cedar Rapids   RAIN      44  44 100 VRB3      29.67F VSB 1/2
Des Moines     LGT RAIN  36  34  92 NW9       29.68R VSB 1   WCI  29
Kirksville     PTSUNNY   63  60  90 S17G29    29.71R
Ottumwa        CLOUDY    54  53  97 S12       29.65S
St Louis       LGT RAIN  60  57  89 S21G32    29.89R
$$


CITY           SKY/WX    TMP DP  RH WIND       PRES   REMARKS
Terre Haute    CLOUDY    60  58  92 S15G25    29.98R
Evansville     CLOUDY    64  59  83 SW17G25   30.06S
Indianapolis   LGT RAIN  61  58  90 SW22G30   30.00R
Lafayette      LGT RAIN  57  57 100 S13G24    29.91S
Madison        LGT RAIN  38  36  92 NE7       29.83S FOG     WCI  33
Milwaukee      LGT RAIN  42  39  89 NE5       29.83F FOG
$$






USA.gov is the U.S. government's official web portal to all federal, state and local government web resources and services.